"Sample Date","Sample Time","Sample Value","Units","Flow Rate","Laser Status","Micron Size 0","Counts/Channel 0","Micron Size 1","Counts/Channel 1","Micron Size 2","Counts/Channel 2","Micron Size 3","Counts/Channel 3","Micron Size 4","Counts/Channel 4","Micron Size 5","Counts/Channel 5","Micron Size 6","Counts/Channel 6","Micron Size 7","Counts/Channel 7","Micron Size 8","Counts/Channel 8","Micron Size 9","Counts/Channel 9","Micron Size 10","Counts/Channel 10","Micron Size 11","Counts/Channel 11","Micron Size 12","Counts/Channel 12","Micron Size 13","Counts/Channel 13","Micron Size 14","Counts/Channel 14","Micron Size 15","Counts/Channel 15","Micron Size 16","Counts/Channel 16","Micron Size 17","Counts/Channel 17","Micron Size 18","Counts/Channel 18","Micron Size 19","Counts/Channel 19","Micron Size 20","Counts/Channel 20","Micron Size 21","Counts/Channel 21","Micron Size 22","Counts/Channel 22","Micron Size 23","Counts/Channel 23","Micron Size 24","Counts/Channel 24","Micron Size 25","Counts/Channel 25","Micron Size 26","Counts/Channel 26","Micron Size 27","Counts/Channel 27","Micron Size 28","Counts/Channel 28","Micron Size 29","Counts/Channel 29","Micron Size 30","Counts/Channel 30","Micron Size 31","Counts/Channel 31"
"05/02/07","18:00:03",93439.000,"cc",28376.307,1,0.100,78760.000,0.200,13396.000,0.300,1203.000,0.500,69.000,1.000,11.000,5.000,0
"05/02/07","18:00:09",91910.000,"cc",28338.520,1,0.100,77513.000,0.200,13256.000,0.300,1053.000,0.500,79.000,1.000,9.000,5.000,0
"05/02/07","18:00:15",92082.000,"cc",28306.641,1,0.100,77613.000,0.200,13216.000,0.300,1158.000,0.500,77.000,1.000,18.000,5.000,0
"05/02/07","18:00:21",92119.000,"cc",28294.822,1,0.100,77360.000,0.200,13529.000,0.300,1133.000,0.500,85.000,1.000,12.000,5.000,0
"05/02/07","18:00:27",89527.000,"cc",28287.650,1,0.100,75167.000,0.200,13103.000,0.300,1164.000,0.500,77.000,1.000,16.000,5.000,0
"05/02/07","18:00:33",87776.000,"cc",28300.387,1,0.100,73543.000,0.200,13025.000,0.300,1117.000,0.500,72.000,1.000,19.000,5.000,0
"05/02/07","18:00:39",86180.000,"cc",28304.654,1,0.100,72243.000,0.200,12732.000,0.300,1117.000,0.500,83.000,1.000,5.000,5.000,0
"05/02/07","18:00:45",84957.000,"cc",28300.850,1,0.100,71198.000,0.200,12550.000,0.300,1116.000,0.500,85.000,1.000,8.000,5.000,0
"05/02/07","18:00:51",83911.000,"cc",28268.113,1,0.100,70126.000,0.200,12556.000,0.300,1159.000,0.500,60.000,1.000,10.000,5.000,0
"05/02/07","18:00:57",83055.000,"cc",28339.215,1,0.100,69480.000,0.200,12381.000,0.300,1120.000,0.500,61.000,1.000,13.000,5.000,0
"05/02/07","18:01:03",82014.000,"cc",28328.496,1,0.100,68489.000,0.200,12415.000,0.300,1024.000,0.500,72.000,1.000,14.000,5.000,0
"05/02/07","18:01:09",82466.000,"cc",28332.768,1,0.100,68990.000,0.200,12186.000,0.300,1188.000,0.500,87.000,1.000,15.000,5.000,0
"05/02/07","18:01:15",82038.000,"cc",28346.373,1,0.100,68489.000,0.200,12361.000,0.300,1098.000,0.500,63.000,1.000,27.000,5.000,0
"05/02/07","18:01:21",79472.000,"cc",28336.186,1,0.100,66313.000,0.200,12057.000,0.300,1017.000,0.500,70.000,1.000,15.000,5.000,0
"05/02/07","18:01:27",77365.000,"cc",28272.731,1,0.100,64615.000,0.200,11610.000,0.300,1048.000,0.500,81.000,1.000,11.000,5.000,0
"05/02/07","18:01:33",77794.000,"cc",28317.320,1,0.100,65059.000,0.200,11612.000,0.300,1006.000,0.500,91.000,1.000,26.000,5.000,0
"05/02/07","18:01:39",76748.000,"cc",28349.703,1,0.100,64208.000,0.200,11458.000,0.300,981.000,0.500,90.000,1.000,11.000,5.000,0
"05/02/07","18:01:45",76670.000,"cc",28327.147,1,0.100,64056.000,0.200,11489.000,0.300,1020.000,0.500,84.000,1.000,21.000,5.000,0
"05/02/07","18:01:51",75735.000,"cc",28300.914,1,0.100,63324.000,0.200,11279.000,0.300,1038.000,0.500,79.000,1.000,15.000,5.000,0
"05/02/07","18:01:57",74276.000,"cc",28271.100,1,0.100,62004.000,0.200,11164.000,0.300,1029.000,0.500,60.000,1.000,19.000,5.000,0
"05/02/07","18:02:03",73024.000,"cc",28305.279,1,0.100,61107.000,0.200,10832.000,0.300,989.000,0.500,75.000,1.000,21.000,5.000,0
"05/02/07","18:02:09",74351.000,"cc",28350.836,1,0.100,62181.000,0.200,11022.000,0.300,1062.000,0.500,71.000,1.000,15.000,5.000,0
"05/02/07","18:02:15",78643.000,"cc",28317.537,1,0.100,66146.000,0.200,11447.000,0.300,954.000,0.500,83.000,1.000,13.000,5.000,0
"05/02/07","18:02:21",81090.000,"cc",28242.938,1,0.100,68128.000,0.200,11865.000,0.300,1001.000,0.500,78.000,1.000,18.000,5.000,0
"05/02/07","18:02:27",80774.000,"cc",28335.475,1,0.100,67994.000,0.200,11701.000,0.300,996.000,0.500,64.000,1.000,19.000,5.000,0
"05/02/07","18:02:33",79866.000,"cc",28358.717,1,0.100,67354.000,0.200,11436.000,0.300,972.000,0.500,89.000,1.000,15.000,5.000,0
"05/02/07","18:02:39",78251.000,"cc",28316.709,1,0.100,65802.000,0.200,11370.000,0.300,996.000,0.500,70.000,1.000,13.000,5.000,0
"05/02/07","18:02:45",78583.000,"cc",28310.340,1,0.100,66111.000,0.200,11444.000,0.300,923.000,0.500,89.000,1.000,16.000,5.000,0
"05/02/07","18:02:51",78832.000,"cc",28348.920,1,0.100,66476.000,0.200,11362.000,0.300,904.000,0.500,79.000,1.000,11.000,5.000,0
"05/02/07","18:02:57",78812.000,"cc",28284.375,1,0.100,66562.000,0.200,11280.000,0.300,877.000,0.500,78.000,1.000,15.000,5.000,0
"05/02/07","18:03:03",79044.000,"cc",28309.850,1,0.100,66659.000,0.200,11364.000,0.300,915.000,0.500,82.000,1.000,24.000,5.000,0
"05/02/07","18:03:09",77650.000,"cc",28286.607,1,0.100,65488.000,0.200,11153.000,0.300,925.000,0.500,71.000,1.000,13.000,5.000,0
"05/02/07","18:03:15",75936.000,"cc",28323.891,1,0.100,64169.000,0.200,10792.000,0.300,868.000,0.500,82.000,1.000,25.000,5.000,0
"05/02/07","18:03:21",75627.000,"cc",28343.680,1,0.100,63946.000,0.200,10717.000,0.300,859.000,0.500,84.000,1.000,21.000,5.000,0
"05/02/07","18:03:27",75155.000,"cc",28369.824,1,0.100,63363.000,0.200,10764.000,0.300,921.000,0.500,89.000,1.000,18.000,5.000,0
"05/02/07","18:03:33",74557.000,"cc",28273.494,1,0.100,62930.000,0.200,10664.000,0.300,876.000,0.500,78.000,1.000,9.000,5.000,0
"05/02/07","18:03:39",73719.000,"cc",28309.609,1,0.100,62335.000,0.200,10416.000,0.300,856.000,0.500,98.000,1.000,14.000,5.000,0
"05/02/07","18:03:45",71563.000,"cc",28317.334,1,0.100,60374.000,0.200,10326.000,0.300,786.000,0.500,58.000,1.000,19.000,5.000,0
"05/02/07","18:03:51",70498.000,"cc",28331.035,1,0.100,59459.000,0.200,10075.000,0.300,865.000,0.500,78.000,1.000,21.000,5.000,0
"05/02/07","18:03:57",71229.000,"cc",28301.074,1,0.100,59953.000,0.200,10276.000,0.300,890.000,0.500,91.000,1.000,19.000,5.000,0
"05/02/07","18:04:03",72337.000,"cc",28267.750,1,0.100,61034.000,0.200,10296.000,0.300,902.000,0.500,91.000,1.000,14.000,5.000,0
"05/02/07","18:04:09",70775.000,"cc",28348.805,1,0.100,59733.000,0.200,10027.000,0.300,898.000,0.500,92.000,1.000,25.000,5.000,0
"05/02/07","18:04:15",69800.000,"cc",28341.002,1,0.100,58748.000,0.200,10023.000,0.300,927.000,0.500,78.000,1.000,24.000,5.000,0
"05/02/07","18:04:21",70261.000,"cc",28313.406,1,0.100,59303.000,0.200,9992.000,0.300,874.000,0.500,80.000,1.000,12.000,5.000,0
"05/02/07","18:04:27",70012.000,"cc",28343.260,1,0.100,59005.000,0.200,10028.000,0.300,888.000,0.500,78.000,1.000,13.000,5.000,0
"05/02/07","18:04:33",71285.000,"cc",28286.098,1,0.100,60016.000,0.200,10203.000,0.300,940.000,0.500,106.000,1.000,20.000,5.000,0
"05/02/07","18:04:39",69933.000,"cc",28277.410,1,0.100,58704.000,0.200,10127.000,0.300,966.000,0.500,117.000,1.000,19.000,5.000,0
"05/02/07","18:04:45",72019.000,"cc",28296.660,1,0.100,60595.000,0.200,10381.000,0.300,933.000,0.500,86.000,1.000,24.000,5.000,0
"05/02/07","18:04:51",74426.000,"cc",28334.740,1,0.100,62969.000,0.200,10420.000,0.300,919.000,0.500,92.000,1.000,26.000,5.000,0
"05/02/07","18:04:57",73228.000,"cc",28362.225,1,0.100,62059.000,0.200,10151.000,0.300,907.000,0.500,86.000,1.000,25.000,5.000,0
"05/02/07","18:05:03",71250.000,"cc",28304.863,1,0.100,60100.000,0.200,10163.000,0.300,872.000,0.500,100.000,1.000,15.000,5.000,0
"05/02/07","18:05:09",76763.000,"cc",28324.481,1,0.100,65008.000,0.200,10695.000,0.300,955.000,0.500,80.000,1.000,25.000,5.000,0
"05/02/07","18:05:15",77400.000,"cc",28312.826,1,0.100,65518.000,0.200,10841.000,0.300,942.000,0.500,78.000,1.000,21.000,5.000,0
"05/02/07","18:05:21",76052.000,"cc",28333.426,1,0.100,64507.000,0.200,10497.000,0.300,942.000,0.500,90.000,1.000,16.000,5.000,0
"05/02/07","18:05:27",77369.000,"cc",28275.889,1,0.100,65772.000,0.200,10607.000,0.300,879.000,0.500,96.000,1.000,15.000,5.000,0
"05/02/07","18:05:33",81832.000,"cc",28289.434,1,0.100,69840.000,0.200,10985.000,0.300,887.000,0.500,105.000,1.000,15.000,5.000,0
"05/02/07","18:05:39",85193.000,"cc",28340.574,1,0.100,72852.000,0.200,11311.000,0.300,902.000,0.500,97.000,1.000,31.000,5.000,0
"05/02/07","18:05:45",79899.000,"cc",28324.647,1,0.100,67897.000,0.200,11005.000,0.300,889.000,0.500,92.000,1.000,16.000,5.000,0
"05/02/07","18:05:51",81944.000,"cc",28334.106,1,0.100,69920.000,0.200,11039.000,0.300,874.000,0.500,97.000,1.000,14.000,5.000,0
"05/02/07","18:05:57",78074.000,"cc",28305.141,1,0.100,66779.000,0.200,10346.000,0.300,833.000,0.500,95.000,1.000,21.000,5.000,0
"05/02/07","18:06:03",81287.000,"cc",28329.272,1,0.100,69344.000,0.200,10974.000,0.300,847.000,0.500,105.000,1.000,17.000,5.000,0
"05/02/07","18:06:09",80071.000,"cc",28344.107,1,0.100,68375.000,0.200,10735.000,0.300,828.000,0.500,100.000,1.000,33.000,5.000,0
"05/02/07","18:06:15",83696.000,"cc",28285.424,1,0.100,71598.000,0.200,11165.000,0.300,808.000,0.500,93.000,1.000,32.000,5.000,0
"05/02/07","18:06:21",81747.000,"cc",28318.705,1,0.100,69901.000,0.200,10945.000,0.300,800.000,0.500,84.000,1.000,17.000,5.000,0
"05/02/07","18:06:27",83494.000,"cc",28290.369,1,0.100,71642.000,0.200,10952.000,0.300,788.000,0.500,92.000,1.000,20.000,5.000,0
"05/02/07","18:06:33",83835.000,"cc",28309.061,1,0.100,71780.000,0.200,11151.000,0.300,784.000,0.500,102.000,1.000,18.000,5.000,0
"05/02/07","18:06:39",79489.000,"cc",28335.631,1,0.100,68065.000,0.200,10553.000,0.300,768.000,0.500,85.000,1.000,18.000,5.000,0
"05/02/07","18:06:45",77031.000,"cc",28344.117,1,0.100,65942.000,0.200,10206.000,0.300,791.000,0.500,70.000,1.000,22.000,5.000,0
"05/02/07","18:06:51",76871.000,"cc",28293.305,1,0.100,65982.000,0.200,10081.000,0.300,730.000,0.500,67.000,1.000,11.000,5.000,0
"05/02/07","18:06:57",81695.000,"cc",28364.248,1,0.100,70011.000,0.200,10780.000,0.300,769.000,0.500,101.000,1.000,34.000,5.000,0
"05/02/07","18:07:03",83488.000,"cc",28279.727,1,0.100,71479.000,0.200,11150.000,0.300,736.000,0.500,101.000,1.000,22.000,5.000,0
"05/02/07","18:07:09",78950.000,"cc",28309.488,1,0.100,67659.000,0.200,10435.000,0.300,762.000,0.500,79.000,1.000,15.000,5.000,0
"05/02/07","18:07:15",80197.000,"cc",28301.852,1,0.100,68788.000,0.200,10622.000,0.300,685.000,0.500,87.000,1.000,15.000,5.000,0
"05/02/07","18:07:21",79445.000,"cc",28364.498,1,0.100,68446.000,0.200,10184.000,0.300,712.000,0.500,84.000,1.000,19.000,5.000,0
"05/02/07","18:07:27",76647.000,"cc",28307.066,1,0.100,65707.000,0.200,10122.000,0.300,726.000,0.500,79.000,1.000,13.000,5.000,0
"05/02/07","18:07:33",75406.000,"cc",28316.199,1,0.100,64580.000,0.200,10034.000,0.300,691.000,0.500,82.000,1.000,19.000,5.000,0
"05/02/07","18:07:39",71893.000,"cc",28321.338,1,0.100,61808.000,0.200,9337.000,0.300,645.000,0.500,77.000,1.000,26.000,5.000,0
"05/02/07","18:07:45",71151.000,"cc",28317.504,1,0.100,61020.000,0.200,9363.000,0.300,658.000,0.500,87.000,1.000,23.000,5.000,0
"05/02/07","18:07:51",69749.000,"cc",28279.926,1,0.100,59814.000,0.200,9223.000,0.300,629.000,0.500,64.000,1.000,19.000,5.000,0
"05/02/07","18:07:57",66833.000,"cc",28303.826,1,0.100,57384.000,0.200,8671.000,0.300,684.000,0.500,77.000,1.000,17.000,5.000,0
"05/02/07","18:08:03",65538.000,"cc",28362.299,1,0.100,56128.000,0.200,8718.000,0.300,595.000,0.500,84.000,1.000,13.000,5.000,0
"05/02/07","18:08:09",63311.000,"cc",28286.938,1,0.100,54255.000,0.200,8319.000,0.300,643.000,0.500,80.000,1.000,14.000,5.000,0
"05/02/07","18:08:15",67831.000,"cc",28283.578,1,0.100,58071.000,0.200,9000.000,0.300,659.000,0.500,80.000,1.000,21.000,5.000,0
"05/02/07","18:08:21",66362.000,"cc",28355.506,1,0.100,56660.000,0.200,8882.000,0.300,690.000,0.500,116.000,1.000,14.000,5.000,0
"05/02/07","18:08:27",66387.000,"cc",28340.131,1,0.100,56668.000,0.200,8948.000,0.300,665.000,0.500,80.000,1.000,26.000,5.000,0
"05/02/07","18:08:33",68342.000,"cc",28325.527,1,0.100,58408.000,0.200,9056.000,0.300,759.000,0.500,97.000,1.000,22.000,5.000,0
"05/02/07","18:08:39",69900.000,"cc",28309.256,1,0.100,59540.000,0.200,9533.000,0.300,716.000,0.500,84.000,1.000,27.000,5.000,0
"05/02/07","18:08:45",70855.000,"cc",28317.000,1,0.100,60308.000,0.200,9716.000,0.300,725.000,0.500,89.000,1.000,17.000,5.000,0
"05/02/07","18:08:51",67236.000,"cc",28257.801,1,0.100,57516.000,0.200,8942.000,0.300,660.000,0.500,98.000,1.000,20.000,5.000,0
"05/02/07","18:08:57",68609.000,"cc",28337.787,1,0.100,58615.000,0.200,9193.000,0.300,689.000,0.500,91.000,1.000,21.000,5.000,0
"05/02/07","18:09:03",72026.000,"cc",28322.254,1,0.100,61587.000,0.200,9591.000,0.300,713.000,0.500,108.000,1.000,27.000,5.000,0
"05/02/07","18:09:09",72269.000,"cc",28353.984,1,0.100,61753.000,0.200,9625.000,0.300,772.000,0.500,100.000,1.000,19.000,5.000,0
"05/02/07","18:09:15",72384.000,"cc",28323.043,1,0.100,61921.000,0.200,9590.000,0.300,757.000,0.500,96.000,1.000,20.000,5.000,0
"05/02/07","18:09:21",69988.000,"cc",28303.227,1,0.100,59700.000,0.200,9420.000,0.300,768.000,0.500,76.000,1.000,24.000,5.000,0
"05/02/07","18:09:27",70200.000,"cc",28291.893,1,0.100,59961.000,0.200,9364.000,0.300,742.000,0.500,115.000,1.000,18.000,5.000,0
"05/02/07","18:09:33",68310.000,"cc",28320.244,1,0.100,58077.000,0.200,9371.000,0.300,734.000,0.500,99.000,1.000,29.000,5.000,0
"05/02/07","18:09:39",67935.000,"cc",28317.508,1,0.100,58041.000,0.200,9044.000,0.300,714.000,0.500,107.000,1.000,29.000,5.000,0
"05/02/07","18:09:45",68806.000,"cc",28294.148,1,0.100,58539.000,0.200,9393.000,0.300,741.000,0.500,100.000,1.000,33.000,5.000,0
"05/02/07","18:09:51",67337.000,"cc",28285.570,1,0.100,57418.000,0.200,9046.000,0.300,733.000,0.500,104.000,1.000,36.000,5.000,0
"05/02/07","18:09:57",65983.000,"cc",28300.982,1,0.100,56214.000,0.200,8907.000,0.300,729.000,0.500,103.000,1.000,30.000,5.000,0
"05/02/07","18:10:03",65519.000,"cc",28341.787,1,0.100,55844.000,0.200,8823.000,0.300,731.000,0.500,98.000,1.000,23.000,5.000,0
"05/02/07","18:10:09",63781.000,"cc",28370.531,1,0.100,54352.000,0.200,8630.000,0.300,664.000,0.500,102.000,1.000,33.000,5.000,0
"05/02/07","18:10:15",63730.000,"cc",28303.580,1,0.100,54286.000,0.200,8611.000,0.300,717.000,0.500,86.000,1.000,30.000,5.000,0
"05/02/07","18:10:21",62923.000,"cc",28278.916,1,0.100,53609.000,0.200,8513.000,0.300,687.000,0.500,98.000,1.000,16.000,5.000,0
"05/02/07","18:10:27",62559.000,"cc",28328.467,1,0.100,53204.000,0.200,8523.000,0.300,694.000,0.500,100.000,1.000,38.000,5.000,0
"05/02/07","18:10:33",63243.000,"cc",28250.473,1,0.100,53741.000,0.200,8614.000,0.300,740.000,0.500,116.000,1.000,32.000,5.000,0
"05/02/07","18:10:39",63487.000,"cc",28328.080,1,0.100,53977.000,0.200,8642.000,0.300,740.000,0.500,102.000,1.000,26.000,5.000,0
"05/02/07","18:10:45",62856.000,"cc",28358.941,1,0.100,53572.000,0.200,8398.000,0.300,751.000,0.500,106.000,1.000,29.000,5.000,0
"05/02/07","18:10:51",63353.000,"cc",28303.805,1,0.100,54048.000,0.200,8505.000,0.300,678.000,0.500,96.000,1.000,26.000,5.000,0
"05/02/07","18:10:57",69660.000,"cc",28282.719,1,0.100,59512.000,0.200,9175.000,0.300,823.000,0.500,107.000,1.000,43.000,5.000,0
"05/02/07","18:11:03",67584.000,"cc",28339.959,1,0.100,57656.000,0.200,9037.000,0.300,729.000,0.500,125.000,1.000,37.000,5.000,0
"05/02/07","18:11:09",67588.000,"cc",28369.420,1,0.100,57499.000,0.200,9212.000,0.300,718.000,0.500,115.000,1.000,44.000,5.000,0
"05/02/07","18:11:15",69022.000,"cc",28307.197,1,0.100,58938.000,0.200,9192.000,0.300,775.000,0.500,88.000,1.000,29.000,5.000,0
"05/02/07","18:11:21",72193.000,"cc",28360.742,1,0.100,61668.000,0.200,9567.000,0.300,810.000,0.500,121.000,1.000,27.000,5.000,0
"05/02/07","18:11:27",80486.000,"cc",28337.906,1,0.100,68723.000,0.200,10730.000,0.300,864.000,0.500,135.000,1.000,34.000,5.000,0
"05/02/07","18:11:33",91689.000,"cc",28278.389,1,0.100,78379.000,0.200,12237.000,0.300,931.000,0.500,116.000,1.000,26.000,5.000,0
"05/02/07","18:11:39",96864.000,"cc",28272.010,1,0.100,82790.000,0.200,12949.000,0.300,964.000,0.500,122.000,1.000,39.000,5.000,0
"05/02/07","18:11:45",104573.000,"cc",28321.246,1,0.100,89418.000,0.200,13937.000,0.300,1052.000,0.500,135.000,1.000,31.000,5.000,0
"05/02/07","18:11:51",103740.000,"cc",28304.332,1,0.100,88649.000,0.200,13851.000,0.300,1081.000,0.500,123.000,1.000,36.000,5.000,0
"05/02/07","18:11:57",106227.000,"cc",28314.910,1,0.100,90540.000,0.200,14348.000,0.300,1161.000,0.500,142.000,1.000,36.000,5.000,0
"05/02/07","18:12:03",101085.000,"cc",28271.527,1,0.100,86236.000,0.200,13615.000,0.300,1083.000,0.500,124.000,1.000,27.000,5.000,0
"05/02/07","18:12:09",98069.000,"cc",28340.943,1,0.100,83716.000,0.200,13164.000,0.300,1058.000,0.500,103.000,1.000,28.000,5.000,0
"05/02/07","18:12:15",93808.000,"cc",28319.395,1,0.100,80274.000,0.200,12364.000,0.300,1021.000,0.500,116.000,1.000,33.000,5.000,0
"05/02/07","18:12:21",97947.000,"cc",28343.287,1,0.100,83689.000,0.200,13089.000,0.300,999.000,0.500,131.000,1.000,39.000,5.000,0
"05/02/07","18:12:27",97221.000,"cc",28289.703,1,0.100,83385.000,0.200,12694.000,0.300,972.000,0.500,148.000,1.000,22.000,5.000,0
"05/02/07","18:12:33",101075.000,"cc",28340.006,1,0.100,86483.000,0.200,13423.000,0.300,1012.000,0.500,127.000,1.000,30.000,5.000,0
"05/02/07","18:12:39",103639.000,"cc",28341.283,1,0.100,89108.000,0.200,13389.000,0.300,997.000,0.500,119.000,1.000,26.000,5.000,0
"05/02/07","18:12:45",103444.000,"cc",28290.787,1,0.100,88567.000,0.200,13678.000,0.300,1037.000,0.500,118.000,1.000,44.000,5.000,0
"05/02/07","18:12:51",101174.000,"cc",28287.432,1,0.100,86808.000,0.200,13235.000,0.300,972.000,0.500,127.000,1.000,32.000,5.000,0
"05/02/07","18:12:57",102515.000,"cc",28339.957,1,0.100,88052.000,0.200,13377.000,0.300,932.000,0.500,121.000,1.000,33.000,5.000,0
"05/02/07","18:13:03",100041.000,"cc",28318.211,1,0.100,85968.000,0.200,12964.000,0.300,966.000,0.500,112.000,1.000,31.000,5.000,0
"05/02/07","18:13:09",104687.000,"cc",28365.674,1,0.100,89821.000,0.200,13718.000,0.300,989.000,0.500,129.000,1.000,30.000,5.000,0
"05/02/07","18:13:15",99330.000,"cc",28298.086,1,0.100,85416.000,0.200,12828.000,0.300,920.000,0.500,128.000,1.000,38.000,5.000,0
"05/02/07","18:13:21",98772.000,"cc",28304.051,1,0.100,85171.000,0.200,12636.000,0.300,828.000,0.500,97.000,1.000,40.000,5.000,0
"05/02/07","18:13:27",97149.000,"cc",28307.117,1,0.100,83708.000,0.200,12465.000,0.300,838.000,0.500,114.000,1.000,24.000,5.000,0
"05/02/07","18:13:33",100470.000,"cc",28284.813,1,0.100,86357.000,0.200,13072.000,0.300,887.000,0.500,118.000,1.000,36.000,5.000,0
"05/02/07","18:13:39",100337.000,"cc",28283.324,1,0.100,86473.000,0.200,12888.000,0.300,843.000,0.500,107.000,1.000,26.000,5.000,0
"05/02/07","18:13:45",103656.000,"cc",28283.279,1,0.100,89520.000,0.200,13102.000,0.300,878.000,0.500,125.000,1.000,31.000,5.000,0
"05/02/07","18:13:51",99097.000,"cc",28342.734,1,0.100,85552.000,0.200,12547.000,0.300,850.000,0.500,108.000,1.000,40.000,5.000,0
"05/02/07","18:13:57",94145.000,"cc",28303.451,1,0.100,81206.000,0.200,12001.000,0.300,814.000,0.500,99.000,1.000,25.000,5.000,0
"05/02/07","18:14:03",87347.000,"cc",28393.387,1,0.100,75153.000,0.200,11283.000,0.300,794.000,0.500,87.000,1.000,30.000,5.000,0
"05/02/07","18:14:09",83641.000,"cc",28309.635,1,0.100,72164.000,0.200,10640.000,0.300,696.000,0.500,115.000,1.000,26.000,5.000,0
"05/02/07","18:14:15",81976.000,"cc",28261.191,1,0.100,70763.000,0.200,10359.000,0.300,728.000,0.500,101.000,1.000,25.000,5.000,0
"05/02/07","18:14:21",79078.000,"cc",28301.299,1,0.100,67910.000,0.200,10345.000,0.300,704.000,0.500,94.000,1.000,25.000,5.000,0
"05/02/07","18:14:27",76031.000,"cc",28317.729,1,0.100,65452.000,0.200,9769.000,0.300,694.000,0.500,91.000,1.000,25.000,5.000,0
"05/02/07","18:14:33",73516.000,"cc",28347.127,1,0.100,63038.000,0.200,9706.000,0.300,650.000,0.500,104.000,1.000,18.000,5.000,0
"05/02/07","18:14:39",71701.000,"cc",28350.248,1,0.100,61660.000,0.200,9238.000,0.300,675.000,0.500,99.000,1.000,29.000,5.000,0
"05/02/07","18:14:45",70037.000,"cc",28308.270,1,0.100,60146.000,0.200,9065.000,0.300,689.000,0.500,107.000,1.000,30.000,5.000,0
"05/02/07","18:14:51",69041.000,"cc",28317.481,1,0.100,59288.000,0.200,8993.000,0.300,625.000,0.500,98.000,1.000,37.000,5.000,0
"05/02/07","18:14:57",70892.000,"cc",28272.811,1,0.100,61022.000,0.200,9118.000,0.300,620.000,0.500,100.000,1.000,32.000,5.000,0
"05/02/07","18:15:03",68473.000,"cc",28295.922,1,0.100,58931.000,0.200,8759.000,0.300,646.000,0.500,113.000,1.000,24.000,5.000,0
"05/02/07","18:15:09",67440.000,"cc",28359.750,1,0.100,57888.000,0.200,8784.000,0.300,626.000,0.500,109.000,1.000,33.000,5.000,0
"05/02/07","18:15:15",65640.000,"cc",28379.637,1,0.100,56401.000,0.200,8505.000,0.300,621.000,0.500,83.000,1.000,30.000,5.000,0
"05/02/07","18:15:21",64319.000,"cc",28337.953,1,0.100,55459.000,0.200,8130.000,0.300,603.000,0.500,93.000,1.000,34.000,5.000,0
"05/02/07","18:15:27",63526.000,"cc",28307.949,1,0.100,54331.000,0.200,8421.000,0.300,638.000,0.500,106.000,1.000,30.000,5.000,0
"05/02/07","18:15:33",61941.000,"cc",28297.891,1,0.100,53205.000,0.200,8057.000,0.300,576.000,0.500,80.000,1.000,23.000,5.000,0
"05/02/07","18:15:39",65623.000,"cc",28259.205,1,0.100,56566.000,0.200,8343.000,0.300,598.000,0.500,87.000,1.000,29.000,5.000,0
"05/02/07","18:15:45",70748.000,"cc",28267.791,1,0.100,61121.000,0.200,8906.000,0.300,584.000,0.500,106.000,1.000,31.000,5.000,0
"05/02/07","18:15:51",68775.000,"cc",28367.934,1,0.100,59172.000,0.200,8853.000,0.300,611.000,0.500,112.000,1.000,27.000,5.000,0
"05/02/07","18:15:57",75375.000,"cc",28353.686,1,0.100,65149.000,0.200,9522.000,0.300,563.000,0.500,113.000,1.000,28.000,5.000,0
"05/02/07","18:16:03",75454.000,"cc",28311.971,1,0.100,65326.000,0.200,9451.000,0.300,555.000,0.500,98.000,1.000,24.000,5.000,0
"05/02/07","18:16:09",74939.000,"cc",28281.363,1,0.100,64840.000,0.200,9412.000,0.300,558.000,0.500,103.000,1.000,26.000,5.000,0
"05/02/07","18:16:15",82439.000,"cc",28333.346,1,0.100,71371.000,0.200,10338.000,0.300,610.000,0.500,85.000,1.000,35.000,5.000,0
"05/02/07","18:16:21",83471.000,"cc",28338.891,1,0.100,72363.000,0.200,10335.000,0.300,629.000,0.500,108.000,1.000,36.000,5.000,0
"05/02/07","18:16:27",93903.000,"cc",28281.518,1,0.100,81474.000,0.200,11691.000,0.300,623.000,0.500,95.000,1.000,20.000,5.000,0
"05/02/07","18:16:33",96208.000,"cc",28310.231,1,0.100,83671.000,0.200,11803.000,0.300,606.000,0.500,106.000,1.000,22.000,5.000,0
"05/02/07","18:16:39",101614.000,"cc",28286.270,1,0.100,88379.000,0.200,12445.000,0.300,648.000,0.500,111.000,1.000,31.000,5.000,0
"05/02/07","18:16:45",105858.000,"cc",28321.602,1,0.100,92208.000,0.200,12884.000,0.300,642.000,0.500,93.000,1.000,31.000,5.000,0
"05/02/07","18:16:51",101325.000,"cc",28327.924,1,0.100,88193.000,0.200,12354.000,0.300,669.000,0.500,89.000,1.000,20.000,5.000,0
"05/02/07","18:16:57",98582.000,"cc",28345.170,1,0.100,85793.000,0.200,12048.000,0.300,590.000,0.500,117.000,1.000,34.000,5.000,0
"05/02/07","18:17:03",97565.000,"cc",28319.734,1,0.100,84719.000,0.200,12081.000,0.300,635.000,0.500,102.000,1.000,28.000,5.000,0
"05/02/07","18:17:09",96370.000,"cc",28320.721,1,0.100,83742.000,0.200,11954.000,0.300,569.000,0.500,81.000,1.000,24.000,5.000,0
"05/02/07","18:17:15",93712.000,"cc",28330.506,1,0.100,81495.000,0.200,11524.000,0.300,567.000,0.500,89.000,1.000,37.000,5.000,0
"05/02/07","18:17:21",88502.000,"cc",28256.510,1,0.100,77164.000,0.200,10680.000,0.300,542.000,0.500,87.000,1.000,29.000,5.000,0